Terminal Aerodrome Forecast
Issued by NWS North Platte, NE

Home | Current Version | Previous Version | Text Only | Print | Product List | Glossary Off
Versions: 1 2 3 4 5 6 7 8 9 10 11 12 13 14 15 16 17 18 19 20 21

000
FTUS43 KLBF 011100
TAFVTN
TAF
KVTN 011136Z 0112/0212 28005KT P6SM SCT050 OVC070
     FM011600 29010KT P6SM SCT050
     FM020400 VRB03KT P6SM SCT250=

USA.gov is the U.S. government's official web portal to all federal, state and local government web resources and services.